Weather History for Chariton, IA

Change the Weather History Date:

Sunday, January 20, 2013

  Actual Average Record
Temperature  
Mean Temperature 16 °F -  
Max Temperature 23 °F 32 °F 52 °F (1986)
Min Temperature 10 °F 12 °F -22 °F (1962)
Degree Days  
Heating Degree Days 48    
Moisture  
Dew Point 8 °F    
Average Humidity 69    
Maximum Humidity 85    
Minimum Humidity 49    
Precipitation  
Precipitation 0.00 in - - ()
Sea Level Pressure  
Sea Level Pressure 30.36 in    
Wind  
Wind Speed 11 mph (NW)    
Max Wind Speed 22 mph    
Max Gust Speed 28 mph    
Visibility 9 miles    
Events Snow    
Averages and records for this station are not official NWS values.
T = Trace of Precipitation, MM = Missing Value Source: NWS Daily Summary

Daily Weather History Graph

Daily Weather History Graph

Search for Another Location

Airport:

Trip Planner

Search our weather history database for the weather conditions in past years. The results will help you decide how hot, cold, wet, or windy it might be!

Date:

Astronomy

Jan. 20, 2013 Rise Set
Actual Time 7:33 AM CST 5:16 PM CST
Civil Twilight 7:03 AM CST 5:46 PM CST
Nautical Twilight 6:29 AM CST 6:19 PM CST
Astronomical Twilight 5:57 AM CST 6:52 PM CST
Moon 12:17 PM CST (1/20) 2:06 AM CST (1/20)
Length of Visible Light 10h 42m
Length of Day
9h 42m
Waxing Gibbous, 66% of the Moon is Illuminated
Jan 20
Waxing Gibbous
Jan 26
Full
Feb 3
Last Quarter
Feb 10
New
Feb 17
First Quarter

Hourly Weather History & Observations

Time (CST) Temp. Windchill Dew Point Humidity Pressure Visibility Wind Dir Wind Speed Gust Speed Precip Events Conditions
12:15 AM 23.0 °F 7.6 °F 10.4 °F 59% 30.28 in 10.0 mi NNW 21.9 mph - N/A   Clear
12:35 AM 21.2 °F 6.0 °F 8.6 °F 58% 30.28 in 10.0 mi NNW 19.6 mph 27.6 mph N/A   Clear
12:55 AM 21.2 °F 8.3 °F 8.6 °F 58% 30.29 in 10.0 mi NNW 13.8 mph - N/A   Clear
1:15 AM 21.2 °F 10.9 °F 8.6 °F 58% 30.30 in 10.0 mi NW 9.2 mph - N/A   Clear
1:35 AM 19.4 °F 6.6 °F 10.4 °F 68% 30.31 in 10.0 mi NW 12.7 mph - N/A   Clear
1:55 AM 19.4 °F 8.6 °F 10.4 °F 68% 30.33 in 10.0 mi WNW 9.2 mph 12.7 mph N/A   Clear
2:15 AM 19.4 °F 6.6 °F 8.6 °F 63% 30.34 in 10.0 mi NW 12.7 mph - N/A   Clear
2:35 AM 19.4 °F 6.0 °F 8.6 °F 63% 30.34 in 10.0 mi NW 13.8 mph - N/A   Clear
2:55 AM 17.6 °F 6.4 °F 8.6 °F 68% 30.34 in 10.0 mi NW 9.2 mph - N/A   Clear
3:15 AM 17.6 °F 6.4 °F 8.6 °F 68% 30.34 in 10.0 mi NW 9.2 mph - N/A   Clear
3:35 AM 17.6 °F 5.7 °F 6.8 °F 63% 30.33 in 10.0 mi NNW 10.4 mph 17.3 mph N/A   Clear
3:55 AM 17.6 °F 6.4 °F 6.8 °F 63% 30.32 in 10.0 mi NNW 9.2 mph - N/A   Clear
4:15 AM 17.6 °F 7.3 °F 6.8 °F 63% 30.31 in 10.0 mi NNW 8.1 mph - N/A   Clear
4:35 AM 15.8 °F 4.2 °F 6.8 °F 68% 30.31 in 10.0 mi NNW 9.2 mph - N/A   Clear
4:55 AM 15.8 °F 7.2 °F 6.8 °F 68% 30.32 in 10.0 mi NNW 5.8 mph - N/A   Clear
5:15 AM 15.8 °F 5.1 °F 6.8 °F 68% 30.33 in 10.0 mi NNW 8.1 mph - N/A   Clear
5:35 AM 15.8 °F 3.4 °F 6.8 °F 68% 30.33 in 10.0 mi NNW 10.4 mph - N/A   Clear
6:15 AM 15.8 °F 4.2 °F 6.8 °F 68% 30.33 in 10.0 mi North 9.2 mph - N/A   Clear
6:35 AM 15.8 °F 6.1 °F 6.8 °F 68% 30.33 in 10.0 mi NNE 6.9 mph - N/A   Clear
6:55 AM 15.8 °F 5.1 °F 6.8 °F 68% 30.34 in 10.0 mi North 8.1 mph - N/A   Clear
7:15 AM 15.8 °F 5.1 °F 6.8 °F 68% 30.34 in 10.0 mi North 8.1 mph - N/A   Clear
7:35 AM 15.8 °F 7.2 °F 6.8 °F 68% 30.35 in 10.0 mi NNW 5.8 mph - N/A   Clear
7:55 AM 15.8 °F 7.2 °F 6.8 °F 68% 30.36 in 10.0 mi NNW 5.8 mph - N/A   Scattered Clouds
8:15 AM 15.8 °F 7.2 °F 6.8 °F 68% 30.36 in 10.0 mi NNW 5.8 mph - N/A   Mostly Cloudy
8:35 AM 15.8 °F 6.1 °F 6.8 °F 68% 30.36 in 10.0 mi NW 6.9 mph - N/A   Overcast
8:55 AM 15.8 °F 6.1 °F 6.8 °F 68% 30.37 in 10.0 mi NW 6.9 mph - N/A   Overcast
9:15 AM 15.8 °F 6.1 °F 6.8 °F 68% 30.37 in 10.0 mi NW 6.9 mph - N/A   Mostly Cloudy
9:35 AM 17.6 °F 6.4 °F 6.8 °F 63% 30.38 in 10.0 mi North 9.2 mph - N/A   Scattered Clouds
9:55 AM 17.6 °F 8.2 °F 6.8 °F 63% 30.39 in 10.0 mi NNW 6.9 mph - N/A   Clear
10:15 AM 17.6 °F 6.4 °F 6.8 °F 63% 30.40 in 10.0 mi NNW 9.2 mph - N/A   Clear
10:35 AM 19.4 °F 8.6 °F 6.8 °F 58% 30.40 in 10.0 mi NNW 9.2 mph - N/A   Scattered Clouds
10:55 AM 19.4 °F 11.5 °F 6.8 °F 58% 30.40 in 10.0 mi North 5.8 mph 9.2 mph N/A   Overcast
11:15 AM 19.4 °F 9.5 °F 5.0 °F 54% 30.40 in 10.0 mi North 8.1 mph - N/A   Overcast
11:35 AM 19.4 °F 9.5 °F 3.2 °F 49% 30.38 in 10.0 mi North 8.1 mph - N/A   Overcast
11:55 AM 19.4 °F 11.5 °F 3.2 °F 49% 30.38 in 10.0 mi North 5.8 mph - N/A   Overcast
12:15 PM 19.4 °F 11.5 °F 3.2 °F 49% 30.38 in 10.0 mi North 5.8 mph - N/A   Overcast
12:55 PM 19.4 °F 9.5 °F 5.0 °F 54% 30.37 in 10.0 mi NNW 8.1 mph - N/A   Overcast
1:15 PM 19.4 °F 9.5 °F 6.8 °F 58% 30.38 in 7.0 mi NW 8.1 mph - N/A Snow Light Snow
1:35 PM 19.4 °F 8.6 °F 10.4 °F 68% 30.37 in 2.0 mi NNW 9.2 mph - N/A Snow Light Snow
1:55 PM 19.4 °F 10.4 °F 10.4 °F 68% 30.37 in 4.0 mi North 6.9 mph - N/A Snow Light Snow
2:15 PM 19.4 °F 10.4 °F 12.2 °F 74% 30.37 in 1.8 mi NW 6.9 mph - N/A Snow Light Snow
2:35 PM 19.4 °F 8.6 °F 12.2 °F 74% 30.36 in 1.5 mi NW 9.2 mph - N/A Snow Light Snow
2:55 PM 19.4 °F 10.4 °F 12.2 °F 74% 30.36 in 1.2 mi NW 6.9 mph - N/A Snow Light Snow
3:15 PM 19.4 °F 9.5 °F 12.2 °F 74% 30.36 in 1.2 mi NNW 8.1 mph - N/A Snow Light Snow
3:35 PM 19.4 °F 10.4 °F 12.2 °F 74% 30.37 in 1.5 mi NW 6.9 mph - N/A Snow Light Snow
3:55 PM 19.4 °F 9.5 °F 12.2 °F 74% 30.36 in 1.5 mi NNW 8.1 mph - N/A Snow Light Snow
4:15 PM 17.6 °F 6.4 °F 12.2 °F 79% 30.37 in 0.8 mi NW 9.2 mph - N/A Snow Light Snow
4:35 PM 17.6 °F 6.4 °F 10.4 °F 73% 30.37 in 7.0 mi NW 9.2 mph - N/A Snow Light Snow
4:55 PM 17.6 °F 7.3 °F 10.4 °F 73% 30.37 in 5.0 mi NW 8.1 mph - N/A Snow Light Snow
5:15 PM 17.6 °F 6.4 °F 10.4 °F 73% 30.37 in 7.0 mi NNW 9.2 mph - N/A Snow Light Snow
5:35 PM 17.6 °F 7.3 °F 10.4 °F 73% 30.37 in 10.0 mi NW 8.1 mph - N/A Snow Light Snow
5:55 PM 17.6 °F 6.4 °F 10.4 °F 73% 30.37 in 5.0 mi NW 9.2 mph - N/A Snow Light Snow
6:15 PM 15.8 °F 4.2 °F 10.4 °F 79% 30.37 in 7.0 mi NW 9.2 mph - N/A Snow Light Snow
6:55 PM 14.0 °F 2.9 °F 6.8 °F 73% 30.38 in 10.0 mi NW 8.1 mph - N/A Snow Light Snow
7:15 PM 14.0 °F 1.2 °F 6.8 °F 73% 30.38 in 10.0 mi NW 10.4 mph - N/A   Scattered Clouds
7:35 PM 12.2 °F 0.7 °F 6.8 °F 79% 30.37 in 10.0 mi NW 8.1 mph - N/A   Scattered Clouds
7:55 PM 12.2 °F -0.2 °F 6.8 °F 79% 30.37 in 10.0 mi NW 9.2 mph - N/A   Clear
8:15 PM 12.2 °F -0.2 °F 6.8 °F 79% 30.37 in 10.0 mi WNW 9.2 mph - N/A   Clear
8:35 PM 12.2 °F -0.2 °F 6.8 °F 79% 30.36 in 10.0 mi WNW 9.2 mph - N/A   Clear
8:55 PM 12.2 °F 0.7 °F 6.8 °F 79% 30.35 in 10.0 mi WNW 8.1 mph - N/A   Clear
9:15 PM 10.4 °F 0.8 °F 3.2 °F 73% 30.34 in 10.0 mi West 5.8 mph - N/A   Clear
9:35 PM 10.4 °F -2.4 °F 5.0 °F 79% 30.35 in 10.0 mi WNW 9.2 mph - N/A   Clear
9:55 PM 10.4 °F -2.4 °F 5.0 °F 79% 30.36 in 10.0 mi WNW 9.2 mph - N/A   Clear
10:15 PM 10.4 °F -4.8 °F 6.8 °F 85% 30.36 in 10.0 mi WNW 12.7 mph - N/A   Scattered Clouds
10:35 PM 12.2 °F -5.3 °F 6.8 °F 79% 30.36 in 10.0 mi WNW 18.4 mph 23.0 mph N/A   Scattered Clouds
10:55 PM 12.2 °F -3.7 °F 6.8 °F 79% 30.37 in 10.0 mi WNW 15.0 mph - N/A   Mostly Cloudy
11:15 PM 12.2 °F -5.3 °F 6.8 °F 79% 30.37 in 10.0 mi WNW 18.4 mph - N/A   Mostly Cloudy
11:35 PM 12.2 °F -1.0 °F 6.8 °F 79% 30.36 in 10.0 mi WNW 10.4 mph - N/A   Overcast
11:55 PM 12.2 °F -2.5 °F 5.0 °F 73% 30.37 in 10.0 mi WNW 12.7 mph 16.1 mph N/A   Overcast